Weather observations for the past three days for
Versailles Darke County Airport
Metric (Imperial)
Date Time (edt) Wind (kph) Vis. (km) Weather Sky Cond. Temperature (ºC) Relative Humidity Wind Chill (°C) Heat Index (°C) Pressure Precipitation (cm)
Air Dwpt 6 hour altimeter (cm) sea level (mb) 1 hr 3 hr 6 hr
Max. Min.
04 07:55 S 7 16.09 Fair CLR 10 7 10.3 8.1 82% 9 75.67 0.0
04 07:35 S 7 16.09 Fair CLR 9 6 82% 8 75.64 0.0
04 07:15 S 9 16.09 Fair CLR 9 6 82% 8 75.64 0.0
04 06:55 S 9 16.09 Fair CLR 8 6 87% 7 75.62 0.0
04 06:35 S 7 16.09 Fair CLR 8 5 82% 7 75.62 0.0
04 06:15 S 11 16.09 Fair CLR 8 5 82% 6 75.62 0.0
04 05:55 S 9 16.09 Fair CLR 9 5 76% 8 75.67 0.0
04 05:15 S 9 16.09 Fair CLR 9 5 76% 8 75.67 0.0
04 04:55 S 11 16.09 Fair CLR 9 5 76% 8 75.69 0.0
04 04:35 S 9 16.09 Fair CLR 9 5 76% 8 75.69 0.0
04 04:15 S 13 16.09 Fair CLR 9 5 76% 7 75.69 0.0
04 03:55 S 15 16.09 Fair CLR 9 5 76% 7 75.72 0.0
04 03:35 S 15 16.09 Fair CLR 9 5 76% 7 75.72 0.0
04 03:15 Vrbl 11 16.09 Fair CLR 10 5 71% 9 75.72 0.0
04 02:55 S 15 16.09 Fair CLR 10 5 71% 8 75.74 0.0
04 02:35 S 13 16.09 Fair CLR 10 5 71% 8 75.74 0.0
04 02:15 S 13 16.09 Fair CLR 10 5 71% 8 75.77 0.0
04 01:55 S 15 16.09 Fair CLR 10 5 10.3 8.9 71% 8 75.77 0.0
04 01:35 S 13 16.09 Fair CLR 10 5 71% 8 75.79 0.0
04 01:15 S 13 16.09 Fair CLR 10 5 71% 8 75.82 0.0
04 00:55 S 11 16.09 A Few Clouds FEW065 10 5 71% 9 75.82 0.0
04 00:35 S 11 16.09 Mostly Cloudy BKN065 BKN075 10 6 76% 9 75.82 0.0
04 00:15 S 11 16.09 Overcast BKN075 OVC100 10 5 71% 9 75.84 0.0
03 23:55 S 15 16.09 Overcast SCT065 OVC090 10 6 76% 8 75.87 0.0
03 23:35 S 13 16.09 Overcast SCT070 OVC100 10 6 76% 8 75.87 0.0
03 23:15 S 15 16.09 Overcast BKN070 OVC100 10 6 76% 8 75.9 0.0
03 22:55 SE 15 16.09 Overcast OVC075 9 6 82% 7 75.92 0.0
03 22:35 SE 15 16.09 Overcast OVC075 9 6 82% 7 75.92 0.0
03 22:15 S 15 16.09 Overcast OVC075 9 7 87% 7 75.92 0.0
03 21:55 SE 15 16.09 Overcast OVC075 9 7 87% 7 75.92 0.0
03 21:35 SE 13 16.09 Overcast OVC075 9 7 87% 7 75.95 0.0
03 21:15 SE 13 16.09 Overcast OVC075 9 7 87% 7 75.95 0.0
03 20:55 SE 13 16.09 Overcast FEW045 FEW050 OVC075 9 8 94% 7 75.95 0.0
03 20:35 SE 15 16.09 Overcast SCT042 BKN050 OVC080 9 8 94% 7 75.95 0.0
03 20:15 S 15 16.09 Overcast FEW046 OVC080 9 8 94% 7 75.95 0.0
03 19:55 SE 19 16.09 Overcast FEW044 FEW050 OVC080 9 8 15.7 7.9 94% 7 75.92 0.0
03 19:35 SE 15 16.09 Overcast SCT050 BKN070 OVC080 9 8 94% 7 75.95 0.0
03 19:15 SE 11 16.09 Overcast SCT070 OVC095 9 8 94% 8 75.95 0.0
03 18:55 SE 15 16.09 Overcast OVC095 9 8 94% 7 75.95 0.0
03 18:35 SE 13 16.09 Overcast OVC095 9 8 94% 7 76 0.0
03 18:15 SE 15 16.09 Mostly Cloudy FEW050 BKN095 9 8 94% 7 76.02 0.0
03 17:55 S 9 16.09 Light Rain FEW035 SCT049 SCT085 8 8 100% 7 76.05 0.0 0.05
03 17:35 Vrbl 2 6.44 Light Rain Fog/Mist SCT036 SCT041 8 7 93% 76.1 0.0
03 17:15 SW 13 9.66 Light Rain Fog/Mist CLR 8 6 87% 6 76.17 0.0
03 16:55 SW 31 G 41 16.09 Light Rain CLR 10 5 71% 7 76.17 0.0
03 16:35 SW 35 G 52 16.09 A Few Clouds and Breezy FEW070 13 2 47% 76.15 0.0
03 16:15 SW 22 G 41 16.09 A Few Clouds FEW070 14 0 39% 76.1 0.0
03 15:55 SW 28 G 39 16.09 A Few Clouds FEW070 14 0 39% 76.12 0.0
03 15:35 SW 26 G 37 16.09 A Few Clouds FEW070 15 0 36% 76.12 0.0
03 15:15 SW 26 G 43 16.09 Fair CLR 15 0 36% 76.12 0.0
03 14:35 SW 28 G 43 16.09 Fair CLR 15 0 36% 76.17 0.0
03 14:15 SW 30 G 48 16.09 Fair CLR 15 0 36% 76.2 0.0
03 13:55 SW 22 G 43 16.09 Fair CLR 15 -1 15.3 4.9 34% 76.23 0.0
03 13:35 SW 22 G 44 16.09 Fair CLR 15 0 36% 76.25 0.0
03 13:15 SW 22 G 37 16.09 Fair CLR 14 0 39% 76.25 0.0
03 12:55 SW 22 G 35 16.09 Fair CLR 15 1 39% 76.28 0.0
03 12:35 SW 22 G 37 16.09 Fair CLR 14 1 41% 76.3 0.0
03 12:15 SW 30 G 41 16.09 Fair CLR 14 0 39% 76.3 0.0
03 11:55 SW 26 G 35 16.09 Fair CLR 14 1 41% 76.33 0.0
03 11:35 SW 28 16.09 Fair CLR 13 1 44% 76.33 0.0
03 11:15 SW 26 G 33 16.09 Fair CLR 13 1 44% 76.33 0.0
03 10:55 SW 26 16.09 Fair CLR 13 1 44% 76.33 0.0
03 10:35 SW 17 G 26 16.09 Fair CLR 12 1 47% 76.33 0.0
03 10:15 SW 22 G 30 16.09 Fair CLR 11 1 50% 76.33 0.0
03 09:55 SW 19 G 28 16.09 Fair CLR 11 1 50% 76.35 0.0
03 09:35 SW 19 G 28 16.09 Fair CLR 10 1 54% 8 76.35 0.0
03 09:15 SW 19 G 30 16.09 Fair CLR 9 0 54% 7 76.35 0.0
03 08:35 SW 17 16.09 Fair CLR 7 0 61% 4 76.35 0.0
03 08:15 SW 15 16.09 Fair CLR 6 0 66% 3 76.35 0.0
03 07:55 SW 17 16.09 Fair CLR 5 0 4.9 1.3 70% 2 76.35 0.0
03 07:35 SW 19 16.09 Fair CLR 5 -1 66% 2 76.35 0.0
03 07:15 SW 11 16.09 Fair CLR 4 -1 70% 2 76.33 0.0
03 06:55 SW 11 16.09 Fair CLR 3 -1 75% 0 76.33 0.0
03 06:35 SW 9 16.09 Fair CLR 3 -1 75% 1 76.3 0.0
03 06:15 SW 7 16.09 Fair CLR 3 -1 75% 1 76.3 0.0
03 05:55 SW 7 16.09 Fair CLR 3 -1 75% 1 76.28 0.0
03 05:35 SW 7 16.09 Fair CLR 3 -1 75% 1 76.3 0.0
03 05:15 SW 9 16.09 Fair CLR 3 -1 75% 1 76.3 0.0
03 04:55 SW 7 16.09 Fair CLR 3 -1 75% 1 76.3 0.0
03 04:35 SW 7 16.09 Fair CLR 2 -1 81% 0 76.3 0.0
03 04:15 SW 7 16.09 Fair CLR 1 0 93% -1 76.3 0.0
03 03:55 SW 7 16.09 Fair CLR 2 0 87% 0 76.3 0.0
03 03:35 SW 6 16.09 Fair CLR 2 0 87% 76.3 0.0
03 03:15 SW 7 16.09 A Few Clouds FEW070 2 0 87% 0 76.3 0.0
03 02:55 SW 6 16.09 Partly Cloudy SCT070 2 0 87% 76.33 0.0
03 02:35 SW 6 16.09 Mostly Cloudy FEW060 BKN070 2 1 93% 76.33 0.0
03 02:15 SW 6 16.09 Mostly Cloudy SCT070 BKN080 2 1 93% 76.35 0.0
03 01:55 SW 7 16.09 Mostly Cloudy SCT070 BKN080 2 0 8 1.7 87% 0 76.35 0.0
03 01:35 SW 6 16.09 A Few Clouds FEW070 2 1 93% 76.35 0.0
03 01:15 SW 7 16.09 A Few Clouds FEW070 2 1 93% 0 76.35 0.0
03 00:55 SW 7 16.09 Fair CLR 2 1 93% 0 76.35 0.0
03 00:35 SW 6 16.09 Fair CLR 2 1 93% 76.35 0.0
03 00:15 SW 7 16.09 Fair CLR 2 1 93% 0 76.35 0.0
02 23:55 SW 7 16.09 Fair CLR 2 2 100% 0 76.35 0.0
02 23:35 SW 6 16.09 Fair CLR 2 2 100% 76.35 0.0
02 23:15 SW 7 16.09 Fair CLR 3 2 93% 1 76.35 0.0
02 22:55 SW 4 16.09 Fair CLR 3 2 93% 76.35 0.0
02 22:35 S 4 16.09 Fair CLR 4 2 87% 76.35 0.0
02 22:15 S 4 16.09 Fair CLR 4 0 75% 76.35 0.0
02 21:55 S 6 16.09 Fair CLR 4 1 81% 76.35 0.0
02 21:35 S 4 16.09 A Few Clouds FEW070 5 0 70% 76.35 0.0
02 21:15 SW 4 16.09 Partly Cloudy SCT070 6 -1 61% 76.33 0.0
02 20:56 W 4 16.09 A Few Clouds FEW070 6 -1 61% 76.33 0.0
02 20:36 N 2 16.09 Fair CLR 7 0 61% 76.33 0.0
02 20:15 NW 6 16.09 Fair CLR 7 -1 57% 76.33 0.0
02 19:35 NW 9 16.09 A Few Clouds FEW060 FEW070 8 -2 50% 7 76.33 0.0
02 19:15 N 11 16.09 Mostly Cloudy BKN070 8 -2 50% 6 76.33 0.0
02 18:55 NW 13 16.09 Overcast OVC070 8 -3 46% 6 76.33 0.0
02 18:35 NW 13 16.09 Overcast OVC070 8 -2 50% 6 76.33 0.0
02 18:15 NW 17 16.09 Overcast OVC070 8 -2 50% 6 76.33 0.0
02 17:55 N 20 G 28 16.09 Overcast OVC070 8 -1 53% 5 76.33 0.0
02 17:36 NW 20 16.09 Overcast OVC070 8 -2 50% 5 76.33 0.0
02 17:15 NW 15 16.09 Overcast OVC060 8 -2 50% 6 76.33 0.0
02 16:35 NW 17 G 28 16.09 Overcast SCT055 OVC065 8 -2 50% 6 76.33 0.0
02 16:15 NW 19 G 26 16.09 Overcast OVC055 8 -3 46% 5 76.33 0.0
02 15:55 NW 17 G 28 16.09 Overcast OVC055 8 -2 50% 6 76.33 0.0
02 15:35 N 22 16.09 Overcast BKN055 OVC065 8 -2 50% 5 76.33 0.0
02 15:15 NW 20 G 30 16.09 Overcast OVC060 8 -3 46% 5 76.35 0.0
02 14:35 NW 15 G 30 16.09 Mostly Cloudy BKN050 8 -2 50% 6 76.35 0.0
02 14:15 NW 13 G 31 16.09 Overcast OVC060 8 -2 50% 6 76.38 0.0
02 13:55 N 15 16.09 Mostly Cloudy BKN060 8 -2 8.6 1.8 50% 6 76.38 0.0
02 13:35 NW 20 G 30 16.09 Mostly Cloudy BKN050 8 -3 46% 5 76.38 0.0
02 13:15 N 13 G 28 16.09 Mostly Cloudy BKN050 8 -2 50% 6 76.4 0.0
02 12:55 NW 19 G 31 16.09 Partly Cloudy SCT050 8 -1 53% 5 76.4 0.0
02 12:35 NW 19 G 28 16.09 A Few Clouds FEW050 8 -1 53% 5 76.4 0.0
02 12:15 NW 17 G 26 16.09 A Few Clouds FEW045 7 -1 57% 4 76.43 0.0
02 11:55 N 19 16.09 Fair CLR 7 0 61% 4 76.43 0.0
02 11:35 Vrbl 7 16.09 A Few Clouds FEW037 6 -1 61% 5 76.43 0.0
02 11:15 NW 20 G 28 16.09 Fair CLR 6 -1 61% 3 76.43 0.0
02 10:55 N 15 16.09 Fair CLR 6 0 66% 3 76.43 0.0
02 10:35 N 17 16.09 Fair CLR 6 0 66% 3 76.43 0.0
02 10:15 Vrbl 9 16.09 Fair CLR 5 0 70% 3 76.43 0.0
02 09:55 N 9 16.09 Fair CLR 5 0 70% 3 76.43 0.0
02 09:35 N 11 16.09 Fair CLR 4 0 75% 2 76.43 0.0
02 08:55 NW 11 16.09 Fair CLR 3 0 81% 0 76.4 0.0
02 08:35 NW 15 16.09 Fair CLR 3 -1 75% -0 76.4 0.0
02 08:15 NW 13 16.09 Fair CLR 2 -1 81% -1 76.38 0.0
02 07:55 NW 11 16.09 Fair CLR 2 -2 4 0.8 75% -1 76.35 0.0
02 07:35 NW 11 16.09 Fair CLR 1 -2 81% -2 76.35 0.0
02 07:15 NW 9 16.09 Fair CLR 1 -2 81% -2 76.33 0.0
02 06:55 NW 9 16.09 Fair CLR 1 -2 81% -2 76.33 0.0
02 06:35 NW 11 16.09 Fair CLR 1 -2 81% -2 76.33 0.0
02 06:15 NW 11 16.09 Fair CLR 1 -2 81% -2 76.33 0.0
02 05:51 NW 11 16.09 Fair CLR 1 -2 81% -2 76.33 0.0
02 05:35 NW 11 16.09 Fair CLR 2 -1 81% -1 76.33 0.0
02 05:15 NW 11 16.09 A Few Clouds FEW060 2 -1 81% -1 76.33 0.0
02 04:56 NW 13 16.09 Mostly Cloudy SCT060 BKN075 3 -1 75% 0 76.33 0.0
02 04:35 NW 15 16.09 Overcast OVC075 3 -1 75% -0 76.33 0.0
02 04:15 NW 11 16.09 Overcast OVC075 3 0 81% 0 76.33 0.0
02 03:55 NW 7 16.09 Overcast OVC075 4 0 75% 2 76.33 0.0
02 03:35 W 6 16.09 Overcast FEW060 OVC075 4 0 75% 76.3 0.0
02 03:15 W 7 16.09 Overcast OVC075 3 0 81% 1 76.3 0.0
02 02:55 NW 7 16.09 Overcast SCT065 OVC075 3 0 81% 1 76.33 0.0
02 02:35 NW 9 16.09 Overcast OVC065 3 0 81% 1 76.33 0.0
02 02:15 NW 9 16.09 Overcast OVC070 4 0 75% 2 76.33 0.0
02 01:55 NW 9 16.09 Overcast OVC070 4 0 7.5 3.9 75% 2 76.33 0.0
02 01:35 NW 9 16.09 Overcast OVC070 4 0 75% 2 76.35 0.0
02 01:15 NW 9 16.09 Overcast OVC070 4 0 75% 2 76.35 0.0
02 00:55 W 9 16.09 Mostly Cloudy BKN070 4 0 75% 2 76.35 0.0
02 00:36 NW 11 16.09 Fair CLR 4 0 75% 2 76.35 0.0
02 00:15 NW 11 16.09 A Few Clouds FEW075 4 0 75% 2 76.33 0.0
01 23:55 NW 11 16.09 A Few Clouds FEW075 5 0 70% 3 76.35 0.0
01 23:35 NW 13 16.09 Fair CLR 5 0 70% 2 76.35 0.0
01 23:15 W 9 16.09 Fair CLR 5 0 70% 3 76.35 0.0
01 22:55 NW 9 16.09 Fair CLR 5 1 76% 3 76.35 0.0
01 22:35 NW 11 16.09 Fair CLR 6 1 71% 4 76.33 0.0
01 22:15 NW 13 16.09 Fair CLR 6 1 71% 4 76.3 0.0
01 21:55 NW 13 16.09 Fair CLR 6 1 71% 4 76.28 0.0
01 21:35 NW 13 16.09 Fair CLR 7 1 66% 5 76.25 0.0
01 21:15 NW 13 16.09 Partly Cloudy SCT041 7 3 76% 5 76.25 0.0
01 20:55 NW 11 16.09 A Few Clouds FEW041 7 4 81% 5 76.2 0.0
01 20:35 NW 7 16.09 Partly Cloudy FEW075 SCT090 7 4 81% 6 76.17 0.0
01 20:15 W 11 16.09 Mostly Cloudy SCT080 BKN100 7 4 81% 5 76.2 0.0
01 19:55 W 7 16.09 Overcast SCT046 BKN080 OVC100 7 4 10.6 6.9 81% 6 76.2 0.0
01 19:35 N 28 G 43 14.48 Light Rain SCT037 BKN065 OVC080 8 3 71% 4 76.2 0.0
01 19:15 W 20 G 28 16.09 Overcast BKN080 OVC090 9 2 62% 6 76.17 0.0
01 18:55 W 15 16.09 Mostly Cloudy FEW065 BKN080 9 2 62% 7 76.17 0.0
01 18:35 W 20 16.09 Overcast BKN065 BKN075 OVC085 9 2 62% 6 76.17 0.0
01 18:15 W 22 G 31 16.09 Overcast SCT042 BKN048 OVC080 9 2 62% 6 76.17 0.0
01 17:55 NW 20 16.09 Overcast SCT048 OVC080 10 2 58% 8 76.15 0.0
01 17:35 NW 24 G 33 16.09 Overcast FEW044 OVC080 11 2 54% 76.15 0.0
01 17:15 NW 19 G 31 16.09 Overcast FEW044 FEW050 OVC080 10 2 58% 8 76.15 0.0
01 16:55 NW 9 G 28 16.09 Overcast OVC070 10 2 58% 9 76.15 0.0
01 16:35 NW 19 16.09 Overcast OVC070 10 3 62% 8 76.15 0.0
01 16:15 NW 15 16.09 Overcast FEW048 BKN060 OVC070 9 3 66% 7 76.15 0.0
01 15:55 NW 17 G 30 16.09 Mostly Cloudy BKN046 BKN060 9 2 62% 7 76.15 0.0
01 15:35 N 22 16.09 Partly Cloudy SCT046 SCT050 SCT060 9 3 66% 6 76.15 0.0
01 15:15 NW 24 16.09 Mostly Cloudy BKN037 BKN045 BKN050 9 4 71% 6 76.15 0.0
01 14:55 N 20 16.09 Mostly Cloudy SCT032 BKN042 BKN055 9 4 71% 6 76.15 0.0
01 14:35 N 22 16.09 Mostly Cloudy SCT034 BKN040 BKN048 9 5 76% 6 76.15 0.0
01 14:15 N 22 G 30 16.09 Overcast BKN030 BKN036 OVC048 8 6 87% 5 76.12 0.0
01 13:55 N 22 16.09 Overcast SCT023 OVC029 7 5 8.6 5.4 87% 4 76.12 0.0
01 13:35 N 22 16.09 Overcast SCT016 OVC023 7 6 93% 4 76.1 0.0
01 13:15 N 24 16.09 Overcast BKN012 OVC018 6 6 100% 2 76.1 0.0
01 12:55 N 22 16.09 Overcast BKN010 OVC016 6 6 100% 2 76.1 0.0
01 12:35 NW 26 G 35 16.09 Overcast OVC010 6 6 100% 2 76.07 0.0
01 12:15 N 24 16.09 Overcast OVC010 6 6 100% 2 76.05 0.0
01 11:55 N 24 16.09 Overcast BKN008 OVC013 6 6 100% 2 76.02 0.0
01 11:35 N 22 16.09 Overcast OVC006 6 6 100% 2 76 0.0
01 11:15 N 28 G 39 16.09 Overcast OVC006 6 6 100% 2 75.97 0.0
01 10:55 NW 28 G 37 16.09 Overcast BKN006 BKN024 OVC041 6 6 100% 2 75.95 0.0 0.05
01 10:35 NW 20 2.82 Rain Fog/Mist SCT012 BKN028 OVC040 7 7 100% 4 75.9 0.0
01 10:15 W 17 11.27 Light Rain SCT017 BKN035 OVC040 9 9 100% 7 75.87 0.0
01 09:55 SW 11 8.05 Light Rain Fog/Mist SCT037 BKN044 BKN060 8 8 100% 6 75.84 0.0 0.03
01 09:35 SW 15 8.05 Light Rain Fog/Mist FEW017 SCT026 BKN038 8 8 100% 6 75.84 0.0
01 09:15 SW 13 16.09 Light Rain BKN017 OVC024 8 8 100% 6 75.84 0.0
01 08:55 SW 15 11.27 Light Rain Fog/Mist SCT022 OVC033 8 8 100% 6 75.87 0.0 0.05
01 08:35 SW 13 6.44 Light Rain Fog/Mist BKN035 OVC046 8 8 100% 6 75.87 0.0
01 08:15 SW 11 9.66 Light Rain Fog/Mist FEW037 BKN048 OVC050 8 8 100% 6 75.84 0.0
Date Time (edt) Wind (kph) Vis. (km) Weather Sky Cond. Air Dwpt Max. Min. Relative Humidity Wind Chill (°C) Heat Index (°C) altimeter (cm) sea level (mb) 1 hr 3 hr 6 hr
6 hour
Temperature (ºC) Pressure Precipitation (cm)